This demonstration page uses our WeatherBlox Daily Observations layout. Learn more.

Hourly Observations for February 28, 2017

Temp ( °F °C ) Dew Point ( °F °C ) Humidity (%) Winds ( mph kmh ) Pressure ( in mb ) Visibility ( mi km ) Precip ( " mm )
12:15 am 00:15 Clear 40 4.4 37 2.8 89 89 S 7 11 29.62 1003 10 16.0934 0 0
12:35 am 00:35 Clear 39 3.7 36 2.1 89 89 S 9 15 29.62 1003 10 16.0934 0 0
12:55 am 00:55 Clear 37 2.7 34 1.3 91 91 S 8 13 29.62 1003 7 11.26538 0 0
1:15 am 01:15 Clear 39 3.7 37 2.5 92 92 SSW 10 17 29.62 1003 7 11.26538 0 0
1:35 am 01:35 Clear 38 3.4 34 0.9 84 84 SW 14 22 29.62 1003 10 16.0934 0 0
1:55 am 01:55 Clear 40 4.5 30 -1.3 66 66 SW 14 22 29.62 1003 10 16.0934 0 0
2:15 am 02:15 Clear 41 4.9 26 -3.5 55 55 WSW 12 19 29.62 1003 10 16.0934 0 0
2:35 am 02:35 Clear 41 5 23 -5 49 49 WSW 15 24 29.65 1004 10 16.0934 0 0
2:55 am 02:55 Clear 40 4.4 22 -5.5 49 49 WSW 18 30 29.65 1004 10 16.0934 0 0
3:15 am 03:15 Clear 37 2.8 22 -5.3 56 56 W 18 30 29.65 1004 10 16.0934 0 0
3:35 am 03:35 Clear 36 2 22 -5.5 58 58 W 16 26 29.71 1006 10 16.0934 0 0
3:55 am 03:55 Clear 35 1.8 22 -5.3 60 60 WNW 15 24 29.71 1006 10 16.0934 0 0
4:15 am 04:15 Clear 33 0.6 25 -4.1 71 71 NW 14 22 29.71 1006 10 16.0934 0 0
4:35 am 04:35 Clear 33 0.4 27 -2.7 80 80 NW 9 15 29.71 1006 10 16.0934 0 0
4:55 am 04:55 Clear 32 0 28 -2.5 83 83 NW 9 15 29.71 1006 10 16.0934 0 0
5:15 am 05:15 Clear 32 0.2 28 -2.1 85 85 NNW 9 15 29.71 1006 10 16.0934 0 0
5:35 am 05:35 Clear 32 0 28 -2.1 86 86 NW 9 15 29.71 1006 10 16.0934 0 0
5:55 am 05:55 Clear 32 -0.1 28 -2.2 86 86 NW 12 19 29.71 1006 10 16.0934 0 0
6:15 am 06:15 Clear 31 -0.3 28 -2.1 88 88 NW 13 20 29.74 1007 10 16.0934 0 0
6:35 am 06:35 Clear 32 -0.1 28 -2 87 87 NW 14 22 29.71 1006 10 16.0934 0 0
6:55 am 06:55 Clear 31 -0.3 28 -2 88 88 NNW 12 19 29.74 1007 10 16.0934 0 0
7:15 am 07:15 Sunny 31 -0.5 28 -2.1 89 89 NNW 12 19 29.77 1008 10 16.0934 0 0
7:35 am 07:35 Sunny 31 -0.5 28 -2.1 89 89 NNW 13 20 29.77 1008 10 16.0934 0 0
7:55 am 07:55 Sunny 32 0 28 -2 87 87 NNW 14 22 29.74 1007 10 16.0934 0 0
8:15 am 08:15 Sunny 32 0.1 29 -1.8 87 87 NNW 15 24 29.74 1007 10 16.0934 0 0
8:35 am 08:35 Sunny 33 0.5 29 -1.7 85 85 NNW 16 26 29.77 1008 10 16.0934 0 0
8:55 am 08:55 Sunny 35 1.5 30 -1.2 82 82 NNW 14 22 29.77 1008 10 16.0934 0 0
9:15 am 09:15 Sunny 36 2 30 -1.1 80 80 NNW 8 13 29.8 1009 10 16.0934 0 0
9:35 am 09:35 Sunny 37 3 31 -0.7 77 77 N 8 13 29.8 1009 10 16.0934 0 0
9:55 am 09:55 Sunny 39 3.9 31 -0.5 73 73 N 9 15 29.77 1008 10 16.0934 0 0
10:15 am 10:15 Sunny 40 4.5 31 -0.4 71 71 N 12 19 29.77 1008 10 16.0934 0 0
10:35 am 10:35 Sunny 41 4.9 31 -0.4 69 69 N 9 15 29.77 1008 10 16.0934 0 0
10:55 am 10:55 Sunny 43 5.9 31 -0.3 65 65 N 12 19 29.8 1009 10 16.0934 0 0
11:15 am 11:15 Sunny 42 5.6 31 -0.6 65 65 N 9 15 29.77 1008 10 16.0934 0 0
11:35 am 11:35 Mostly Cloudy 42 5.5 31 -0.6 65 65 N 13 20 29.77 1008 10 16.0934 0 0
11:55 am 11:55 Cloudy 42 5.7 31 -0.6 64 64 N 6 9 29.77 1008 10 16.0934 0 0
12:15 pm 12:15 Cloudy 44 6.5 31 -0.5 61 61 N 10 17 29.77 1008 10 16.0934 0 0
12:35 pm 12:35 Cloudy 44 6.7 31 -0.8 59 59 N 13 20 29.71 1006 10 16.0934 0 0
12:55 pm 12:55 Cloudy 45 7 30 -0.9 58 58 N 14 22 29.71 1006 10 16.0934 0 0
1:15 pm 13:15 Cloudy 45 7 31 -0.8 58 58 N 13 20 29.71 1006 10 16.0934 0 0
1:35 pm 13:35 Cloudy 45 7.1 30 -0.9 57 57 NNW 14 22 29.71 1006 10 16.0934 0 0
1:55 pm 13:55 Cloudy 45 7 30 -0.9 58 58 NNW 14 22 29.71 1006 10 16.0934 0 0
2:15 pm 14:15 Cloudy 45 7.1 30 -1 57 57 NNW 14 22 29.71 1006 10 16.0934 0 0
2:35 pm 14:35 Cloudy 45 7 29 -1.5 55 55 NNW 16 26 29.71 1006 10 16.0934 0 0
2:55 pm 14:55 Cloudy 44 6.7 29 -1.9 55 55 N 16 26 29.71 1006 10 16.0934 0 0
3:15 pm 15:15 Cloudy 44 6.5 28 -2 55 55 NNW 13 20 29.71 1006 10 16.0934 0 0
3:35 pm 15:35 Cloudy 44 6.4 29 -1.7 57 57 NW 13 20 29.71 1006 10 16.0934 0 0
3:55 pm 15:55 Cloudy 43 6.2 28 -2.4 54 54 NNW 14 22 29.74 1007 10 16.0934 0 0
4:15 pm 16:15 Cloudy 43 6.3 27 -2.8 53 53 NNW 15 24 29.71 1006 10 16.0934 0 0
4:35 pm 16:35 Cloudy 44 6.5 26 -3.4 50 50 NNW 16 26 29.71 1006 10 16.0934 0 0
4:55 pm 16:55 Cloudy 44 6.5 24 -4.6 45 45 NNW 12 19 29.71 1006 10 16.0934 0 0
5:15 pm 17:15 Cloudy 44 6.5 22 -5.6 42 42 NNW 12 19 29.71 1006 10 16.0934 0 0
5:35 pm 17:35 Cloudy 44 6.6 17 -8.4 34 34 NW 24 39 29.74 1007 10 16.0934 0 0
6:15 pm 18:15 Cloudy 39 4 24 -4.2 56 56 NW 18 30 29.8 1009 10 16.0934 0 0
6:35 pm 18:35 Windy with Snow Likely 38 3.4 27 -3 63 63 NW 21 33 29.85 1011 7 11.26538 0 0
6:55 pm 18:55 Cloudy 39 4.1 24 -4.2 55 55 NW 16 26 29.83 1010 10 16.0934 0 0
7:15 pm 19:15 Cloudy 40 4.7 22 -5.5 48 48 NW 13 20 29.83 1010 10 16.0934 0 0
7:35 pm 19:35 Cloudy 40 4.2 23 -5.1 51 51 WNW 9 15 29.83 1010 10 16.0934 0 0
7:55 pm 19:55 Cloudy 39 4 23 -5.2 52 52 NW 9 15 29.83 1010 10 16.0934 0 0
8:15 pm 20:15 Cloudy 38 3.3 23 -5.2 54 54 NW 8 13 29.85 1011 10 16.0934 0 0
8:35 pm 20:35 Cloudy 38 3.2 19 -7 48 48 NW 14 22 29.85 1011 10 16.0934 0 0
8:55 pm 20:55 Cloudy 37 3 17 -8.5 43 43 NW 16 26 29.85 1011 10 16.0934 0 0
9:15 pm 21:15 Cloudy 37 2.9 15 -9.3 41 41 NW 15 24 29.88 1012 10 16.0934 0 0
9:35 pm 21:35 Cloudy 37 2.6 15 -9.5 41 41 NW 17 28 29.88 1012 10 16.0934 0 0
9:55 pm 21:55 Cloudy 37 2.5 15 -9.5 41 41 NW 16 26 29.91 1013 10 16.0934 0 0
10:15 pm 22:15 Mostly Cloudy 36 2.1 16 -8.8 45 45 NW 15 24 29.91 1013 10 16.0934 0 0
10:35 pm 22:35 Mostly Cloudy 35 1.5 17 -8.2 49 49 NW 13 20 29.91 1013 10 16.0934 0 0
10:55 pm 22:55 Cloudy 34 1.1 18 -7.8 52 52 NW 12 19 29.97 1015 10 16.0934 0 0
11:15 pm 23:15 Mostly Cloudy 33 0.5 18 -7.6 55 55 WNW 9 15 29.97 1015 10 16.0934 0 0
11:35 pm 23:35 Partly Cloudy 32 0 18 -7.7 57 57 WNW 8 13 29.97 1015 10 16.0934 0 0
11:55 pm 23:55 Clear 31 -0.5 18 -7.7 59 59 W 6 9 30 1016 10 16.0934 0 0

Powered by AerisWeather